Location: Calvera
(42.3882°N, 0.6137°E)
Time: 14:50:43
(UTC+00:00)

Okean 1-7 Rocket - Pass Details

Date: 28 October 2020
Orbit: 615 x 650 km, 82.5° (Epoch: 25 November)

Event Time Altitude Azimuth Distance (km) Brightness Sun altitude
Rises 05:22:33 0° 196° (SSW) 2,951 6.9 -12.3°
Reaches altitude 10° 05:24:50 10° 200° (SSW) 2,043 6.1 -11.9°
Maximum altitude 05:29:18 59° 280° (W) 750 3.7 -11.1°
Drops below altitude 10° 05:33:47 10° 0° (N) 2,042 6.1 -10.3°
Sets 05:36:04 0° 5° (N) 2,950 7.0 -9.9°
